Change the Weather History Date:

Tuesday, November 13, 2012

  Actual Average (KPOU) Record (KPOU)
Temperature  
Mean Temperature 50 °F 42 °F  
Max Temperature 62 °F 53 °F 73 °F (1964)
Min Temperature 39 °F 32 °F 16 °F (2013)
Degree Days  
Heating Degree Days 14 22  
Month to date heating degree days 269  
Since 1 July heating degree days 845  
Cooling Degree Days 0 0  
Month to date cooling degree days 0  
Year to date cooling degree days 672  
Moisture  
Dew Point 39 °F    
Average Humidity 74    
Maximum Humidity 93    
Minimum Humidity 55    
Precipitation  
Precipitation 0.11 in 0.11 in 1.71 in (1982)
Month to date precipitation 1.47  
Year to date precipitation 41.00  
Sea Level Pressure  
Sea Level Pressure 30.28 in    
Wind  
Wind Speed 12 mph (NW)    
Max Wind Speed 23 mph    
Max Gust Speed 34 mph    
Visibility 10 miles    
Events Rain    
T = Trace of Precipitation, MM = Missing Value Source: NWS Daily Summary

Daily Weather History Graph

Daily Weather History Graph

Search for Another Location

Airport or City:

Trip Planner

Search our weather history database for the weather conditions in past years. The results will help you decide how hot, cold, wet, or windy it might be!

Date:

Astronomy

Nov. 13, 2012 Rise Set
Actual Time 6:43 AM EST 4:38 PM EST
Civil Twilight 6:14 AM EST 5:08 PM EST
Nautical Twilight 5:40 AM EST 5:41 PM EST
Astronomical Twilight 5:08 AM EST 6:14 PM EST
Moon 6:18 AM EST (11/13) 4:29 PM EST (11/13)
Length of Visible Light 10h 53m
Length of Day
9h 54m
Waning Crescent, 0% of the Moon is Illuminated
Nov 13
Waning Crescent
Nov 13
New
Nov 20
First Quarter
Nov 28
Full
Dec 6
Last Quarter

Hourly Weather History & Observations

Time (EST) Temp. Windchill Dew Point Humidity Pressure Visibility Wind Dir Wind Speed Gust Speed Precip Events Conditions
12:02 AM 62.6 °F - 57.2 °F 82% 30.14 in 10.0 mi South 17.3 mph 23.0 mph N/A   Mostly Cloudy
12:54 AM 62.1 °F - 57.0 °F 84% 30.10 in 10.0 mi South 15.0 mph - N/A   Overcast
1:24 AM 62.6 °F - 57.2 °F 82% 30.09 in 10.0 mi South 11.5 mph 19.6 mph N/A   Overcast
1:54 AM 62.1 °F - 57.0 °F 84% 30.08 in 10.0 mi South 13.8 mph 20.7 mph 0.00 in Rain Light Rain
2:25 AM 53.6 °F - 48.2 °F 82% 30.12 in 6.0 mi NW 23.0 mph 34.5 mph 0.02 in Rain Rain
2:45 AM 51.8 °F - 46.4 °F 82% 30.13 in 9.0 mi NW 19.6 mph 28.8 mph 0.11 in Rain Light Rain
2:54 AM 51.1 °F - 46.0 °F 83% 30.13 in 7.0 mi WNW 13.8 mph 26.5 mph 0.11 in Rain Light Rain
3:54 AM 50.0 °F - 45.0 °F 83% 30.17 in 10.0 mi West 5.8 mph - 0.00 in   Overcast
4:54 AM 48.0 °F - 43.0 °F 83% 30.21 in 10.0 mi WNW 4.6 mph - 0.00 in Rain Light Rain
5:54 AM 48.0 °F - 43.0 °F 83% 30.24 in 10.0 mi West 6.9 mph - 0.00 in Rain Light Rain
6:54 AM 46.0 °F 42.5 °F 44.1 °F 93% 30.25 in 9.0 mi West 6.9 mph - N/A Rain Light Rain
7:54 AM 45.0 °F 41.2 °F 43.0 °F 93% 30.31 in 8.0 mi West 6.9 mph - N/A Rain Light Rain
8:54 AM 43.0 °F 38.2 °F 39.9 °F 89% 30.28 in 5.0 mi NW 8.1 mph - N/A Rain Rain
9:54 AM 41.0 °F 34.7 °F 37.9 °F 89% 30.30 in 10.0 mi WNW 10.4 mph - N/A Rain Light Rain
10:32 AM 42.8 °F 38.6 °F 39.2 °F 87% 30.29 in 10.0 mi NW 6.9 mph - N/A   Overcast
10:45 AM 42.8 °F 38.6 °F 37.4 °F 81% 30.29 in 10.0 mi NW 6.9 mph - N/A   Overcast
11:14 AM 44.6 °F 41.4 °F 37.4 °F 76% 30.30 in 10.0 mi NNW 5.8 mph - N/A   Overcast
11:22 AM 44.6 °F 40.2 °F 37.4 °F 76% 30.29 in 10.0 mi NNW 8.1 mph - N/A   Mostly Cloudy
11:31 AM 44.6 °F 40.2 °F 37.4 °F 76% 30.29 in 10.0 mi NW 8.1 mph - N/A   Mostly Cloudy
11:54 AM 45.0 °F 39.7 °F 36.0 °F 71% 30.31 in 10.0 mi NW 10.4 mph - N/A   Partly Cloudy
12:54 PM 46.0 °F 41.4 °F 35.1 °F 66% 30.30 in 10.0 mi WNW 9.2 mph - N/A   Partly Cloudy
1:54 PM 46.9 °F - 33.1 °F 59% 30.30 in 10.0 mi NW 13.8 mph - N/A   Scattered Clouds
2:54 PM 46.0 °F 40.2 °F 32.0 °F 58% 30.31 in 10.0 mi NW 12.7 mph 18.4 mph N/A   Overcast
3:54 PM 44.1 °F 40.1 °F 30.0 °F 58% 30.34 in 10.0 mi NW 6.9 mph - N/A   Overcast
4:54 PM 43.0 °F 37.7 °F 28.0 °F 56% 30.36 in 10.0 mi NW 9.2 mph - N/A   Overcast
5:54 PM 39.9 °F 37.8 °F 28.0 °F 63% 30.38 in 10.0 mi NW 3.5 mph - N/A   Mostly Cloudy
6:54 PM 41.0 °F 39.0 °F 30.0 °F 65% 30.40 in 10.0 mi NNW 3.5 mph - N/A   Overcast
7:54 PM 41.0 °F 36.4 °F 28.9 °F 62% 30.42 in 10.0 mi North 6.9 mph - N/A   Overcast
8:54 PM 41.0 °F 34.7 °F 26.1 °F 55% 30.44 in 10.0 mi NNW 10.4 mph - N/A   Overcast
9:54 PM 39.9 °F 35.1 °F 26.1 °F 58% 30.45 in 10.0 mi NNW 6.9 mph - N/A   Overcast
10:54 PM 39.0 °F 34.8 °F 26.1 °F 60% 30.46 in 10.0 mi North 5.8 mph - N/A   Overcast
11:54 PM 39.0 °F 33.4 °F 27.0 °F 62% 30.46 in 10.0 mi NNE 8.1 mph - N/A   Overcast